Probability
3 2 1 0 0 0 0 0 0 0 0 0 0 0 0 0 0 0 0 0 0 0 0 0 0 0 0 0 0 0 0 0 0 0 0 0 0 0 0 0 0 0 0 0
2 1 0 0 0 0 0 0 0 0 0 0 0 0 0 0 0 0 0 0 0 0 0 0 0 0 0 0 0 0 0 0 0 0 0 0 0 0 0 0 0 0 0 0
1 0 0 0 0 0 0 0 0 0 0 0 0 0 0 0 0 0 0 0 0 0 0 0 0 0 0 0 0 0 0 0 0 0 0 0 0 0 0 0 0 0 0 0
0 0 0 0 0 0 0 0 0 0 0 0 0 0 0 0 0 0 0 0 0 0 0 0 0 0 0 0 0 0 0 0 0 0 0 0 0 0 0 0 0 0 0 0
0 0 0 0 0 0 0 0 0 0 0 0 0 0 0 0 0 0 0 0 0 0 0 0 0 0 0 0 0 0 0 0 0 0 0 0 0 0 0 0 0 0 0 0
0 0 0 0 0 0 0 0 0 0 0 0 0 0 0 0 0 0 0 0 0 0 0 0 0 0 0 0 0 0 0 0 0 0 0 0 0 0 0 0 0 0 0 0
0 0 0 0 0 0 0 0 0 0 0 0 0 0 0 0 0 0 0 0 0 0 0 0 0 0 0 0 0 0 0 0 0 0 0 0 0 0 0 0 0 0 0 0
0 0 0 0 0 0 0 0 0 0 0 0 0 0 0 0 0 0 0 0 0 0 0 0 0 0 0 0 0 0 0 0 0 0 0 0 0 0 0 0 0 0 0 0
0 0 0 0 0 0 0 0 0 0 0 0 0 0 0 0 0 0 0 0 0 0 0 0 0 0 0 0 0 0 0 0 0 0 0 0 0 0 0 0 0 0 0 0
0 0 0 0 0 0 0 0 0 0 0 0 0 0 0 0 0 0 0 0 0 0 0 0 0 0 0 0 0 0 0 0 0 0 0 0 0 0 0 0 0 0 0 0
0 0 0 0 0 0 0 0 0 0 0 0 0 0 0 0 0 0 0 0 0 0 0 0 0 0 0 0 0 0 0 0 0 0 0 0 0 0 0 0 0 0 0 0
0 0 0 0 0 0 0 0 0 0 0 0 0 0 0 0 0 0 0 0 0 0 0 0 0 0 0 0 0 0 0 0 0 0 0 0 0 0 0 0 0 0 0 0
1 0 0 0 0 0 0 0 0 0 0 0 0 0 0 0 0 0 0 0 0 0 0 0 0 0 0 0 0 0 0 0 0 0 0 0 0 0 0 0 0 0 0 0
1 0 0 0 0 0 0 0 0 0 0 0 0 0 0 0 0 0 0 0 0 0 0 0 0 0 0 0 0 0 0 0 0 0 0 0 0 0 0 0 0 0 0 0
1 0 0 0 0 0 0 0 0 0 0 0 0 0 0 0 0 0 0 0 0 0 0 0 0 0 0 0 0 0 0 0 0 0 0 0 0 0 0 0 0 0 0 0
0 0 0 0 0 0 0 0 0 0 0 0 0 0 0 0 0 0 0 0 0 0 0 0 0 0 0 0 0 0 0 0 0 0 0 0 0 0 0 0 0 0 0 0
0 0 0 0 0 0 0 0 0 0 0 0 0 0 0 0 0 0 0 0 0 0 0 0 0 0 0 0 0 0 0 0 0 0 0 0 0 0 0 0 0 0 0 0
0 0 0 0 0 0 0 0 0 0 0 0 0 0 0 0 0 0 0 0 0 0 0 0 0 0 0 0 0 0 0 0 0 0 0 0 0 0 0 0 0 0 0 0
0 0 0 0 0 0 0 0 0 0 0 0 0 0 0 0 0 0 0 0 0 0 0 0 0 0 0 0 0 0 0 0 0 0 0 0 0 0 0 0 0 0 0 0
0 0 0 0 0 0 0 0 0 0 0 0 0 0 0 0 0 0 0 0 0 0 0 0 0 0 0 0 0 0 0 0 0 0 0 0 0 0 0 0 0 0 0 0
0 0 0 0 0 0 0 0 0 0 0 0 0 0 0 0 0 0 0 0 0 0 0 0 0 0 0 0 0 0 0 0 0 0 0 0 0 0 0 0 0 0 0 0
0 0 0 0 0 0 0 0 0 0 0 0 0 0 0 0 0 0 0 0 0 0 0 0 0 0 0 0 0 0 0 0 0 0 0 0 0 0 0 0 0 0 0 0
0 0 0 0 0 0 0 0 0 0 0 0 0 0 0 0 0 0 0 0 0 0 0 0 0 0 0 0 0 0 0 0 0 0 0 0 0 0 0 0 0 0 0 0
0 0 0 0 0 0 0 0 0 0 0 0 0 0 0 0 0 0 0 0 0 0 0 0 0 0 0 0 0 0 0 0 0 0 0 0 0 0 0 0 0 0 0 0
0 0 0 0 0 0 0 0 0 0 0 0 0 0 0 0 0 0 0 0 0 0 0 0 0 0 0 0 0 0 0 0 0 0 0 0 0 0 0 0 0 0 0 0
0 0 0 0 0 0 0 0 0 0 0 0 0 0 0 0 0 0 0 0 0 0 0 0 0 0 0 0 0 0 0 0 0 0 0 0 0 0 0 0 0 0 0 0
Wind_Speed
12 12 17 20 22 15 11 13 15 12 8 11 17 21 20 17 15 16 16 15 16 16 16 13 13 14 14 15 16 17 17 17 14 12 11 11 11 11 10 11 13 14 13 14
11 21 22 17 18 17 15 16 16 9 5 9 15 21 21 20 20 20 20 19 18 17 15 14 14 13 15 17 18 18 18 18 18 14 13 10 11 10 11 10 13 15 15 15
23 13 17 16 17 21 21 20 17 10 3 7 9 18 22 20 19 20 20 20 20 18 18 17 15 15 15 17 18 16 19 19 20 18 13 10 10 9 10 13 13 15 16 16
21 16 15 18 20 21 21 18 15 12 9 9 8 15 18 18 19 20 20 20 21 20 19 18 17 17 17 17 16 18 19 19 19 18 16 18 15 15 16 13 12 14 17 17
16 17 20 22 21 21 11 10 14 14 13 12 11 14 15 12 20 20 19 19 20 19 19 19 18 17 16 15 14 15 17 18 19 19 20 19 18 16 13 13 15 15 15 17
13 10 16 18 17 17 8 7 8 10 10 17 21 18 18 15 19 16 15 16 17 17 17 17 16 14 14 13 13 14 16 18 18 19 20 21 22 20 17 17 15 14 12 14
14 13 9 7 12 15 13 10 8 10 12 15 14 17 19 13 15 16 16 16 14 13 14 14 14 13 13 13 13 13 15 17 17 18 20 21 22 22 21 19 17 15 13 13
16 15 17 14 16 16 21 19 13 11 11 11 10 19 15 8 12 14 15 14 13 14 13 13 12 11 11 11 12 13 14 16 16 17 18 19 20 16 15 19 16 16 13 14
15 13 12 16 14 16 16 19 15 8 4 7 11 13 12 6 10 12 13 13 14 13 12 11 11 10 10 10 10 12 13 14 14 16 17 17 18 18 18 18 18 15 15 13
9 9 8 10 10 16 15 13 9 11 10 14 14 18 14 10 13 13 13 14 14 12 11 10 9 9 8 8 9 10 11 13 13 14 14 13 16 18 18 17 18 17 17 16
9 9 7 10 16 19 15 17 13 9 9 11 14 15 9 12 12 12 12 11 11 10 10 8 7 7 7 7 7 8 10 11 11 12 13 14 15 15 16 16 17 17 16 17
13 7 9 12 8 11 16 19 19 14 12 11 12 15 4 7 8 8 8 7 7 8 8 7 7 6 6 7 7 7 8 10 11 11 11 13 13 14 15 16 17 16 16 16
13 9 8 7 8 9 13 17 19 15 10 11 14 15 5 6 6 6 6 7 7 7 7 7 7 6 7 7 7 7 8 8 9 9 10 12 13 13 14 15 15 15 15 15
11 9 12 16 10 10 14 18 19 17 12 15 20 23 16 11 9 8 8 9 9 8 8 8 8 8 7 7 7 7 7 7 7 8 9 11 12 12 13 13 13 13 14 14
9 9 10 11 8 8 12 16 19 22 21 18 20 23 23 16 13 11 10 10 10 10 9 9 8 9 8 8 8 8 8 7 6 8 9 10 10 10 11 11 11 11 12 12
9 7 7 9 11 11 12 16 18 20 20 22 22 25 20 15 12 12 11 10 10 11 10 10 9 9 9 9 9 8 8 7 6 8 9 9 8 9 9 9 9 9 10 11
10 8 8 9 8 7 14 19 21 19 18 18 23 23 15 14 13 11 9 8 9 10 10 10 10 10 9 9 8 9 9 7 6 7 8 7 7 8 8 8 8 9 10 10
11 9 5 5 6 16 11 9 17 19 19 18 17 17 15 14 12 9 7 8 10 9 10 10 11 12 10 9 9 8 7 6 6 6 7 7 7 7 7 7 8 9 8 9
11 10 6 7 10 10 10 7 11 15 17 16 18 17 14 11 9 10 7 6 8 9 9 10 10 11 11 10 9 7 6 5 5 6 7 6 6 7 6 7 8 8 7 8
9 9 8 8 10 13 11 6 7 9 13 8 10 11 10 7 8 8 5 7 8 9 8 9 9 9 9 9 7 6 7 6 7 7 7 6 5 6 7 8 7 5 6 7
12 10 12 11 11 11 6 5 9 12 9 3 6 7 6 7 7 6 7 8 8 9 9 9 9 8 8 8 6 6 7 7 8 7 6 6 5 6 7 6 5 4 5 5
14 12 12 10 11 13 6 9 11 5 2 2 3 3 4 5 5 6 8 8 9 9 9 8 8 8 8 7 6 7 8 8 7 7 7 6 5 5 4 4 4 4 4 5
11 10 8 10 9 1 7 6 2 2 3 2 2 2 3 4 5 7 8 8 9 9 8 7 7 9 8 7 6 8 9 8 7 7 7 6 5 4 4 4 4 4 4 4
6 3 5 6 7 4 4 3 1 1 2 2 1 2 3 5 6 7 7 8 8 9 8 7 7 8 9 8 7 8 9 8 6 7 7 5 5 5 4 3 4 4 5 5
7 8 7 7 5 4 5 4 2 1 1 1 1 2 4 5 6 7 7 7 8 8 8 7 7 8 10 10 10 9 9 8 7 7 6 5 4 4 4 4 3 4 5 5
6 8 9 8 6 6 5 3 2 2 2 2 3 4 4 5 6 7 7 7 7 8 8 8 8 9 9 10 10 9 8 7 7 7 6 5 4 4 4 4 3 3 5 5
Wind_Direction
185 198 208 208 212 226 222 223 231 235 215 220 238 249 253 249 245 249 248 246 245 247 249 242 232 223 220 218 215 214 212 210 206 204 205 209 215 216 217 218 217 215 213 210
194 217 217 213 213 219 223 229 236 241 222 235 254 256 255 252 248 248 249 248 247 248 248 244 235 224 219 218 217 216 215 212 208 208 207 211 214 217 219 218 218 217 215 213
211 217 207 203 206 212 221 226 228 227 214 237 271 264 250 247 245 247 248 249 250 248 248 246 239 231 224 222 219 216 216 214 212 210 209 209 214 221 217 218 218 216 215 215
223 219 199 204 211 210 225 223 227 224 231 242 231 269 255 246 242 240 242 244 246 246 246 247 243 238 231 226 222 220 219 217 214 210 210 209 210 215 219 217 217 215 214 215
214 205 203 211 214 209 224 203 215 223 232 250 233 257 263 239 245 243 239 241 244 245 246 246 244 241 238 232 225 222 222 221 217 212 212 214 220 224 225 220 220 218 215 215
222 205 208 217 214 208 182 171 201 218 226 241 235 240 264 235 241 245 241 239 242 246 247 248 249 246 243 236 228 224 223 223 219 216 215 217 221 223 224 222 220 218 217 216
212 216 207 190 186 190 189 185 198 206 215 237 227 230 252 243 237 239 244 245 245 246 248 249 249 246 244 238 230 225 224 225 222 219 219 221 223 225 226 225 224 221 219 217
202 210 200 196 200 195 199 202 210 217 223 231 202 230 251 233 232 236 242 247 248 249 249 250 252 252 250 244 237 231 228 230 226 222 222 224 225 227 229 228 226 224 223 222
205 215 188 199 200 198 200 213 225 246 256 250 227 243 257 236 231 233 237 242 247 250 252 253 255 254 252 249 243 237 235 234 232 228 227 227 226 227 229 230 229 229 228 226
206 209 190 187 188 210 215 200 197 213 221 235 240 241 243 223 224 228 234 238 244 250 255 258 259 261 262 259 253 245 240 238 236 233 230 230 229 229 231 232 231 229 229 227
202 206 189 181 197 198 196 204 208 213 221 233 247 246 241 238 229 232 235 241 247 253 260 265 271 275 274 266 258 251 246 245 243 237 233 232 233 232 231 232 233 232 232 229
198 205 216 215 218 221 210 211 208 215 219 227 248 257 224 228 230 228 238 251 260 265 270 276 285 288 284 277 270 263 256 251 248 245 241 239 237 235 233 233 234 233 233 232
180 192 204 215 217 214 219 220 220 226 234 230 239 255 242 230 229 237 258 277 286 287 287 289 293 293 289 285 280 274 267 261 257 251 246 244 241 237 235 235 235 233 232 232
184 201 212 220 213 197 209 217 218 220 228 235 238 252 255 254 262 273 278 284 291 291 290 290 292 291 290 288 286 283 278 270 262 253 248 246 243 240 238 237 235 234 233 232
188 208 219 234 228 215 218 220 220 223 229 237 245 251 257 261 270 278 280 282 285 287 289 291 292 293 294 293 291 289 284 278 267 259 253 251 250 247 243 239 237 235 233 233
192 197 199 226 226 226 234 230 227 230 234 240 252 258 262 270 272 274 276 278 282 287 291 295 296 295 295 294 295 293 287 283 270 260 257 258 256 252 246 242 238 234 233 233
187 183 192 221 214 222 235 227 226 229 230 233 242 251 263 264 267 270 276 280 283 287 292 296 296 297 294 292 292 290 289 289 272 264 264 260 255 252 250 247 241 236 235 233
186 185 193 196 187 229 236 228 225 231 236 236 243 254 260 261 270 275 277 284 286 293 299 303 304 304 304 300 295 292 291 287 275 268 267 264 256 254 252 245 242 241 239 235
192 182 184 196 222 248 262 227 208 219 236 237 242 251 258 263 271 264 272 279 282 292 299 302 305 305 308 306 306 302 297 291 282 277 275 272 263 259 253 248 248 247 241 239
191 188 187 194 212 229 235 199 197 203 241 237 234 245 258 256 254 264 322 313 304 304 304 306 307 306 305 309 311 301 294 290 283 280 280 278 269 261 256 252 252 250 242 242
183 193 202 207 223 243 237 178 166 199 232 203 214 230 246 245 258 296 314 307 308 310 313 317 315 310 309 312 307 296 293 288 288 289 286 279 267 259 259 259 253 245 240 240
186 189 198 199 218 234 175 169 192 214 106 154 186 209 236 260 281 290 298 305 312 312 316 321 317 312 317 321 313 301 295 297 299 294 287 280 271 262 257 251 253 237 228 234
204 201 193 200 217 208 160 176 156 127 179 197 216 239 248 271 281 294 300 305 308 310 313 318 315 313 318 328 321 303 303 308 303 295 285 282 278 265 247 239 245 243 229 230
213 206 203 216 228 198 172 161 145 176 201 207 239 264 268 279 288 296 300 305 309 313 316 318 317 314 315 324 321 312 312 312 302 294 292 289 282 279 264 243 235 237 236 232
195 185 202 222 223 190 204 206 223 217 187 207 292 288 286 287 290 294 298 305 309 313 317 318 314 311 313 319 320 321 319 316 308 300 295 291 281 276 274 260 244 240 248 235
197 196 200 213 199 204 207 193 201 216 250 269 287 294 296 289 288 294 295 304 309 312 317 317 315 313 314 317 316 321 321 316 310 304 300 294 293 290 281 277 283 251 238 243